Home   Weather   Abbotsford   Past weeks

Flag for Canada Past Weather in Abbotsford, British Columbia, Canada — Yesterday and Last 2 Weeks

Now
57 °F

Clear.


Feels Like: 57 °F
Forecast: 53 / 78 °F
Wind: No wind

Location: Abbotsford

Current Time: Aug 21, 2017 at 1:35:35 am

Latest Report: Aug 21, 2017 at 1:00 am


Visibility: 15 mi

Pressure: 30.13 "Hg

Humidity: 77%

Dew Point: 50 °F

Location of AbbotsfordLocation

Past Weather in Abbotsford — Graph

°F

Abbotsford Temperature Yesterday

Maximum temperature yesterday: 77 °F (at 4:00 pm)
Minimum temperature yesterday: 54 °F (at 5:00 am)
Average temperature yesterday: 64 °F

High & Low Weather Summary for the Past Weeks

 TemperatureHumidityPressure
High88 °F (Aug 10, 3:00 pm)100% (Aug 6, 5:00 am)30.21 "Hg (Aug 6, 5:00 am)
Low50 °F (Aug 15, 6:00 am)34% (Aug 15, 5:00 pm)29.85 "Hg (Aug 11, 7:00 pm)
Average66 °F72%30.00 "Hg
* Reported Aug 6 12:00 am — Aug 21 12:00 am, Abbotsford. Weather by CustomWeather, © 2017

Note: Actual official high and low records may vary slightly from our data, if they occured in-between our weather recording intervals... More about our weather records

Advertising

Abbotsford Weather History for the Previous 24 Hours

Scroll right to see more
 ConditionsComfort  
Time TempWeatherWind HumidityBarometerVisibility
12:00 am
Mon, Aug 21
61 °FPassing clouds.No wind72%30.13 "Hg15 mi
11:00 pm
Sun, Aug 20
61 °FPassing clouds.2 mph68%30.11 "Hg15 mi
10:00 pm61 °FPassing clouds.5 mph72%30.11 "Hg15 mi
9:00 pm63 °FPassing clouds.7 mph64%30.11 "Hg15 mi
8:00 pm68 °FScattered clouds.9 mph53%30.09 "Hg30 mi
7:00 pm73 °FScattered clouds.9 mph41%30.08 "Hg30 mi
6:00 pm75 °FPassing clouds.8 mph39%30.07 "Hg30 mi
5:00 pm77 °FPassing clouds.9 mph39%30.08 "Hg30 mi
4:00 pm77 °FPassing clouds.12 mph39%30.09 "Hg30 mi
3:00 pm75 °FPassing clouds.10 mph41%30.11 "Hg30 mi
2:00 pm73 °FScattered clouds.8 mph47%30.11 "Hg30 mi
1:00 pm73 °FScattered clouds.10 mph41%30.13 "Hg30 mi
12:00 pm70 °FBroken clouds.3 mph50%30.14 "Hg30 mi
11:00 am66 °FPartly sunny.3 mph56%30.15 "Hg30 mi
10:00 am63 °FBroken clouds.2 mph64%30.16 "Hg25 mi
9:00 am61 °FBroken clouds.3 mph68%30.16 "Hg25 mi
8:00 am57 °FPartly sunny.5 mph77%30.15 "Hg25 mi
7:00 am55 °FBroken clouds.3 mph82%30.15 "Hg30 mi
6:00 am55 °FPartly cloudy.3 mph82%30.15 "Hg30 mi
5:00 am54 °FPartly cloudy.2 mph88%30.14 "Hg10 mi
4:00 am55 °FPassing clouds.3 mph82%30.15 "Hg10 mi
3:00 am55 °FPassing clouds.No wind82%30.15 "Hg10 mi
2:00 am55 °FPassing clouds.No wind82%30.15 "Hg10 mi
1:00 am55 °FClear.2 mph82%30.15 "Hg10 mi
Weather by CustomWeather, © 2017

See weather overviewHow to use our weather pages